owner,sensor,date,latitude,longitude,vertical_datum,direction_of_sea_water_velocity,sea_water_speed,upward_sea_water_velocity,qcFlag 
TABS,ioos:station:wmo:42050:1,2000-02-01T00:00:00Z,28.8425,-94.2433,2.0,236.7881921,19.58992088,-99999.0,'11111222,11111222,99999999' 
TABS,ioos:station:wmo:42050:1,2000-02-01T00:30:00Z,28.8425,-94.2433,2.0,242.9621601,15.72903684,-99999.0,'11111222,11111222,99999999' 
TABS,ioos:station:wmo:42050:1,2000-02-01T01:00:00Z,28.8425,-94.2433,2.0,248.1008012,16.38206641,-99999.0,'11111222,11111222,99999999' 
TABS,ioos:station:wmo:42050:1,2000-02-01T01:30:00Z,28.8425,-94.2433,2.0,232.3697451,20.50580406,-99999.0,'11111222,11111222,99999999' 
TABS,ioos:station:wmo:42050:1,2000-02-01T02:00:00Z,28.8425,-94.2433,2.0,234.3099081,21.46055218,-99999.0,'11111222,11111222,99999999' 
TABS,ioos:station:wmo:42050:1,2000-02-01T02:30:00Z,28.8425,-94.2433,2.0,252.8397987,19.18396466,-99999.0,'11111222,11111222,99999999' 
TABS,ioos:station:wmo:42050:1,2000-02-01T03:00:00Z,28.8425,-94.2433,2.0,245.8017107,19.27346362,-99999.0,'11111222,11111222,99999999' 
TABS,ioos:station:wmo:42050:1,2000-02-01T03:30:00Z,28.8425,-94.2433,2.0,242.7187351,21.11907432,-99999.0,'11111222,11111222,99999999' 
TABS,ioos:station:wmo:42050:1,2000-02-01T04:00:00Z,28.8425,-94.2433,2.0,263.2242368,18.90200518,-99999.0,'11111222,11111222,99999999' 
TABS,ioos:station:wmo:42050:1,2000-02-01T04:30:00Z,28.8425,-94.2433,2.0,263.8229406,16.63657717,-99999.0,'11111222,11111222,99999999' 
TABS,ioos:station:wmo:42050:1,2000-02-01T05:00:00Z,28.8425,-94.2433,2.0,240.6851422,19.48516615,-99999.0,'11111222,11111222,99999999' 
TABS,ioos:station:wmo:42050:1,2000-02-01T05:30:00Z,28.8425,-94.2433,2.0,240.3592291,21.08966097,-99999.0,'11111222,11111222,99999999' 
TABS,ioos:station:wmo:42050:1,2000-02-01T06:00:00Z,28.8425,-94.2433,2.0,234.1107138,24.64961257,-99999.0,'11111222,11111222,99999999' 
TABS,ioos:station:wmo:42050:1,2000-02-01T06:30:00Z,28.8425,-94.2433,2.0,236.1997305,21.69713806,-99999.0,'11111222,11111222,99999999' 
TABS,ioos:station:wmo:42050:1,2000-02-01T07:00:00Z,28.8425,-94.2433,2.0,230.1447876,22.3142757,-99999.0,'11111222,11111222,99999999' 
TABS,ioos:station:wmo:42050:1,2000-02-01T07:30:00Z,28.8425,-94.2433,2.0,231.8031465,20.47348773,-99999.0,'11111222,11111222,99999999' 
TABS,ioos:station:wmo:42050:1,2000-02-01T08:00:00Z,28.8425,-94.2433,2.0,224.9996843,24.64974239,-99999.0,'11111222,11111222,99999999' 
TABS,ioos:station:wmo:42050:1,2000-02-01T08:30:00Z,28.8425,-94.2433,2.0,231.029792,25.10686161,-99999.0,'11111222,11111222,99999999' 
TABS,ioos:station:wmo:42050:1,2000-02-01T09:00:00Z,28.8425,-94.2433,2.0,230.1993537,27.93252584,-99999.0,'11111222,11111222,99999999' 
TABS,ioos:station:wmo:42050:1,2000-02-01T09:30:00Z,28.8425,-94.2433,2.0,226.3736707,30.66896803,-99999.0,'11111222,11111222,99999999' 
TABS,ioos:station:wmo:42050:1,2000-02-01T12:00:00Z,28.8425,-94.2433,2.0,241.4669992,25.26905024,-99999.0,'11111222,11111222,99999999' 
TABS,ioos:station:wmo:42050:1,2000-02-01T12:30:00Z,28.8425,-94.2433,2.0,251.4509164,23.89105481,-99999.0,'11111222,11111222,99999999' 
TABS,ioos:station:wmo:42050:1,2000-02-01T13:00:00Z,28.8425,-94.2433,2.0,248.3924972,26.28718319,-99999.0,'11111222,11111222,99999999' 
TABS,ioos:station:wmo:42050:1,2000-02-01T13:30:00Z,28.8425,-94.2433,2.0,250.8612151,23.18124242,-99999.0,'11111222,11111222,99999999' 
TABS,ioos:station:wmo:42050:1,2000-02-01T14:00:00Z,28.8425,-94.2433,2.0,256.5418271,21.14048249,-99999.0,'11111222,11111222,99999999' 
TABS,ioos:station:wmo:42050:1,2000-02-01T14:30:00Z,28.8425,-94.2433,2.0,267.5259986,17.1459762,-99999.0,'11111222,11111222,99999999' 
TABS,ioos:station:wmo:42050:1,2000-02-01T15:00:00Z,28.8425,-94.2433,2.0,269.5307217,18.33061374,-99999.0,'11111222,11111222,99999999' 
TABS,ioos:station:wmo:42050:1,2000-02-01T15:30:00Z,28.8425,-94.2433,2.0,268.8461313,22.35452974,-99999.0,'11111222,11111222,99999999' 
TABS,ioos:station:wmo:42050:1,2000-02-01T16:00:00Z,28.8425,-94.2433,2.0,285.9381432,20.61232641,-99999.0,'11111222,11111222,99999999' 
TABS,ioos:station:wmo:42050:1,2000-02-01T16:30:00Z,28.8425,-94.2433,2.0,286.9792722,20.40960558,-99999.0,'11111222,11111222,99999999' 
TABS,ioos:station:wmo:42050:1,2000-02-01T17:00:00Z,28.8425,-94.2433,2.0,287.1278762,18.70974345,-99999.0,'11111222,11111222,99999999' 
TABS,ioos:station:wmo:42050:1,2000-02-01T17:30:00Z,28.8425,-94.2433,2.0,283.4550879,17.92188048,-99999.0,'11111222,11111222,99999999' 
TABS,ioos:station:wmo:42050:1,2000-02-01T18:00:00Z,28.8425,-94.2433,2.0,288.8147624,14.32543193,-99999.0,'11111222,11111222,99999999' 
TABS,ioos:station:wmo:42050:1,2000-02-01T18:30:00Z,28.8425,-94.2433,2.0,287.224805,11.07676848,-99999.0,'11111222,11111222,99999999' 
TABS,ioos:station:wmo:42050:1,2000-02-01T19:00:00Z,28.8425,-94.2433,2.0,267.1654747,9.101131798,-99999.0,'11133222,11111222,99999999' 
TABS,ioos:station:wmo:42050:1,2000-02-01T19:30:00Z,28.8425,-94.2433,2.0,245.7100411,10.13738132,-99999.0,'11111222,11111222,99999999' 
TABS,ioos:station:wmo:42050:1,2000-02-01T20:00:00Z,28.8425,-94.2433,2.0,255.4194779,11.24203273,-99999.0,'11111222,11111222,99999999' 
TABS,ioos:station:wmo:42050:1,2000-02-01T20:30:00Z,28.8425,-94.2433,2.0,239.793212,11.54800849,-99999.0,'11111222,11111222,99999999' 
TABS,ioos:station:wmo:42050:1,2000-02-01T21:00:00Z,28.8425,-94.2433,2.0,225.4270432,14.22031294,-99999.0,'11111222,11111222,99999999' 
TABS,ioos:station:wmo:42050:1,2000-02-01T21:30:00Z,28.8425,-94.2433,2.0,235.6837933,19.29917097,-99999.0,'11111222,11111222,99999999' 
TABS,ioos:station:wmo:42050:1,2000-02-01T22:00:00Z,28.8425,-94.2433,2.0,244.0398032,19.05236206,-99999.0,'11111222,11111222,99999999' 
TABS,ioos:station:wmo:42050:1,2000-02-01T22:30:00Z,28.8425,-94.2433,2.0,242.3998288,18.32532946,-99999.0,'11111222,11111222,99999999' 
TABS,ioos:station:wmo:42050:1,2000-02-01T23:00:00Z,28.8425,-94.2433,2.0,240.4087115,22.6202962,-99999.0,'11111222,11111222,99999999' 
TABS,ioos:station:wmo:42050:1,2000-02-01T23:30:00Z,28.8425,-94.2433,2.0,243.4480809,18.99316193,-99999.0,'11111222,11111222,99999999' 
TABS,ioos:station:wmo:42050:1,2000-02-02T00:00:00Z,28.8425,-94.2433,2.0,238.0387788,17.73906987,-99999.0,'11111222,11111222,99999999' 
TABS,ioos:station:wmo:42050:1,2000-02-02T00:30:00Z,28.8425,-94.2433,2.0,252.7665036,18.09220827,-99999.0,'11111222,11111222,99999999' 
TABS,ioos:station:wmo:42050:1,2000-02-02T01:00:00Z,28.8425,-94.2433,2.0,236.3095903,20.94825291,-99999.0,'11111222,11111222,99999999' 
TABS,ioos:station:wmo:42050:1,2000-02-02T01:30:00Z,28.8425,-94.2433,2.0,261.4958618,25.15656574,-99999.0,'11111222,11111222,99999999' 
TABS,ioos:station:wmo:42050:1,2000-02-02T02:00:00Z,28.8425,-94.2433,2.0,252.7704099,24.64592461,-99999.0,'11111222,11111222,99999999' 
TABS,ioos:station:wmo:42050:1,2000-02-02T02:30:00Z,28.8425,-94.2433,2.0,258.6951522,20.50786435,-99999.0,'11111222,11111222,99999999' 
TABS,ioos:station:wmo:42050:1,2000-02-02T03:00:00Z,28.8425,-94.2433,2.0,267.6759427,25.65109159,-99999.0,'11111222,11111222,99999999' 
TABS,ioos:station:wmo:42050:1,2000-02-02T03:30:00Z,28.8425,-94.2433,2.0,266.841966,24.32693363,-99999.0,'11111222,11111222,99999999' 
TABS,ioos:station:wmo:42050:1,2000-02-02T04:00:00Z,28.8425,-94.2433,2.0,255.5373652,24.46524474,-99999.0,'11111222,11111222,99999999' 
TABS,ioos:station:wmo:42050:1,2000-02-02T04:30:00Z,28.8425,-94.2433,2.0,265.8646798,28.98544807,-99999.0,'11111222,11111222,99999999' 
TABS,ioos:station:wmo:42050:1,2000-02-02T05:00:00Z,28.8425,-94.2433,2.0,264.8383622,28.12402887,-99999.0,'11111222,11111222,99999999' 
TABS,ioos:station:wmo:42050:1,2000-02-02T05:30:00Z,28.8425,-94.2433,2.0,256.3371751,27.13788864,-99999.0,'11111222,11111222,99999999' 
TABS,ioos:station:wmo:42050:1,2000-02-02T06:00:00Z,28.8425,-94.2433,2.0,246.5019417,26.15922399,-99999.0,'11111222,11111222,99999999' 
TABS,ioos:station:wmo:42050:1,2000-02-02T06:30:00Z,28.8425,-94.2433,2.0,240.885147,26.94445583,-99999.0,'11111222,11111222,99999999' 
TABS,ioos:station:wmo:42050:1,2000-02-02T07:00:00Z,28.8425,-94.2433,2.0,233.5331162,29.83073918,-99999.0,'11111222,11111222,99999999' 
TABS,ioos:station:wmo:42050:1,2000-02-02T07:30:00Z,28.8425,-94.2433,2.0,233.4542721,25.77841345,-99999.0,'11111222,11111222,99999999' 
TABS,ioos:station:wmo:42050:1,2000-02-02T08:00:00Z,28.8425,-94.2433,2.0,233.2867314,30.66211506,-99999.0,'11111222,11111222,99999999' 
TABS,ioos:station:wmo:42050:1,2000-02-02T08:30:00Z,28.8425,-94.2433,2.0,224.6227447,32.24476702,-99999.0,'11111222,11111222,99999999' 
TABS,ioos:station:wmo:42050:1,2000-02-02T09:00:00Z,28.8425,-94.2433,2.0,216.6696986,26.94216398,-99999.0,'11111222,11111222,99999999' 
TABS,ioos:station:wmo:42050:1,2000-02-02T09:30:00Z,28.8425,-94.2433,2.0,236.2982131,27.93470243,-99999.0,'11111222,11111222,99999999' 
TABS,ioos:station:wmo:42050:1,2000-02-02T10:00:00Z,28.8425,-94.2433,2.0,232.8413692,28.60836241,-99999.0,'11111222,11111222,99999999' 
TABS,ioos:station:wmo:42050:1,2000-02-02T10:30:00Z,28.8425,-94.2433,2.0,233.1257205,28.31400007,-99999.0,'11111222,11111222,99999999' 
TABS,ioos:station:wmo:42050:1,2000-02-02T11:00:00Z,28.8425,-94.2433,2.0,229.3315493,27.89727585,-99999.0,'11111222,11111222,99999999' 
TABS,ioos:station:wmo:42050:1,2000-02-02T11:30:00Z,28.8425,-94.2433,2.0,237.7636574,27.65238869,-99999.0,'11111222,11111222,99999999' 
TABS,ioos:station:wmo:42050:1,2000-02-02T12:00:00Z,28.8425,-94.2433,2.0,238.1716302,29.10662124,-99999.0,'11111222,11111222,99999999' 
TABS,ioos:station:wmo:42050:1,2000-02-02T12:30:00Z,28.8425,-94.2433,2.0,249.1409395,30.13500456,-99999.0,'11111222,11111222,99999999' 
TABS,ioos:station:wmo:42050:1,2000-02-02T13:00:00Z,28.8425,-94.2433,2.0,257.7765255,27.44209358,-99999.0,'11111222,11111222,99999999' 
TABS,ioos:station:wmo:42050:1,2000-02-02T13:30:00Z,28.8425,-94.2433,2.0,264.6481092,28.73524839,-99999.0,'11111222,11111222,99999999' 
TABS,ioos:station:wmo:42050:1,2000-02-02T14:00:00Z,28.8425,-94.2433,2.0,267.8205053,23.40692633,-99999.0,'11111222,11111222,99999999' 
TABS,ioos:station:wmo:42050:1,2000-02-02T14:30:00Z,28.8425,-94.2433,2.0,267.5016884,23.86267378,-99999.0,'11111222,11111222,99999999' 
TABS,ioos:station:wmo:42050:1,2000-02-02T15:00:00Z,28.8425,-94.2433,2.0,274.114601,22.85890636,-99999.0,'11111222,11111222,99999999' 
TABS,ioos:station:wmo:42050:1,2000-02-02T15:30:00Z,28.8425,-94.2433,2.0,271.7562413,24.15133951,-99999.0,'11111222,11111222,99999999' 
TABS,ioos:station:wmo:42050:1,2000-02-02T16:00:00Z,28.8425,-94.2433,2.0,286.3001896,19.09760456,-99999.0,'11111222,11111222,99999999' 
TABS,ioos:station:wmo:42050:1,2000-02-02T16:30:00Z,28.8425,-94.2433,2.0,280.7292551,23.20565448,-99999.0,'11111222,11111222,99999999' 
TABS,ioos:station:wmo:42050:1,2000-02-02T17:00:00Z,28.8425,-94.2433,2.0,284.7299966,14.63082021,-99999.0,'11111222,11111222,99999999' 
TABS,ioos:station:wmo:42050:1,2000-02-02T17:30:00Z,28.8425,-94.2433,2.0,289.3345649,15.31363445,-99999.0,'11111222,11111222,99999999' 
TABS,ioos:station:wmo:42050:1,2000-02-02T18:00:00Z,28.8425,-94.2433,2.0,282.8323481,17.42518293,-99999.0,'11111222,11111222,99999999' 
TABS,ioos:station:wmo:42050:1,2000-02-02T18:30:00Z,28.8425,-94.2433,2.0,283.0551655,17.13280479,-99999.0,'11111222,11111222,99999999' 
TABS,ioos:station:wmo:42050:1,2000-02-02T19:00:00Z,28.8425,-94.2433,2.0,287.2334964,13.5691562,-99999.0,'11111222,11111222,99999999' 
TABS,ioos:station:wmo:42050:1,2000-02-02T19:30:00Z,28.8425,-94.2433,2.0,300.163035,12.75731163,-99999.0,'11111222,11111222,99999999' 
TABS,ioos:station:wmo:42050:1,2000-02-02T20:00:00Z,28.8425,-94.2433,2.0,288.2314284,13.32908474,-99999.0,'11111222,11111222,99999999' 
TABS,ioos:station:wmo:42050:1,2000-02-02T20:30:00Z,28.8425,-94.2433,2.0,290.4239598,13.66927211,-99999.0,'11111222,11111222,99999999' 
TABS,ioos:station:wmo:42050:1,2000-02-02T21:00:00Z,28.8425,-94.2433,2.0,276.527318,9.14930052,-99999.0,'11133222,11111222,99999999' 
TABS,ioos:station:wmo:42050:1,2000-02-02T21:30:00Z,28.8425,-94.2433,2.0,282.1005097,14.93174136,-99999.0,'11111222,11111222,99999999' 
TABS,ioos:station:wmo:42050:1,2000-02-02T22:00:00Z,28.8425,-94.2433,2.0,279.7239095,15.86795513,-99999.0,'11111222,11111222,99999999' 
TABS,ioos:station:wmo:42050:1,2000-02-02T22:30:00Z,28.8425,-94.2433,2.0,266.4471936,11.94294771,-99999.0,'11111222,11111222,99999999' 
TABS,ioos:station:wmo:42050:1,2000-02-02T23:00:00Z,28.8425,-94.2433,2.0,270.0004209,13.41,-99999.0,'11111222,11111222,99999999' 
TABS,ioos:station:wmo:42050:1,2000-02-02T23:30:00Z,28.8425,-94.2433,2.0,265.4440175,11.20540048,-99999.0,'11111222,11111222,99999999' 
TABS,ioos:station:wmo:42050:1,2000-02-03T00:00:00Z,28.8425,-94.2433,2.0,268.7321831,13.56331818,-99999.0,'11111222,11111222,99999999' 
TABS,ioos:station:wmo:42050:1,2000-02-03T00:30:00Z,28.8425,-94.2433,2.0,278.3862473,9.188237045,-99999.0,'11133222,11111222,99999999' 
TABS,ioos:station:wmo:42050:1,2000-02-03T01:00:00Z,28.8425,-94.2433,2.0,251.5860284,8.484391552,-99999.0,'11133222,11111222,99999999' 
TABS,ioos:station:wmo:42050:1,2000-02-03T01:30:00Z,28.8425,-94.2433,2.0,288.0577661,7.678176867,-99999.0,'11133222,11111222,99999999' 
TABS,ioos:station:wmo:42050:1,2000-02-03T02:00:00Z,28.8425,-94.2433,2.0,292.4477816,7.411572033,-99999.0,'11133222,11111222,99999999' 
TABS,ioos:station:wmo:42050:1,2000-02-03T02:30:00Z,28.8425,-94.2433,2.0,290.271733,7.302287313,-99999.0,'11133222,11111222,99999999' 
TABS,ioos:station:wmo:42050:1,2000-02-03T03:00:00Z,28.8425,-94.2433,2.0,306.6551058,7.99005632,-99999.0,'11133222,11111222,99999999' 
TABS,ioos:station:wmo:42050:1,2000-02-03T03:30:00Z,28.8425,-94.2433,2.0,300.6275706,4.671702045,-99999.0,'11133222,11111222,99999999' 
TABS,ioos:station:wmo:42050:1,2000-02-03T04:00:00Z,28.8425,-94.2433,2.0,289.4463213,5.376709031,-99999.0,'11133222,11111222,99999999' 
TABS,ioos:station:wmo:42050:1,2000-02-03T04:30:00Z,28.8425,-94.2433,2.0,302.7286257,4.956944623,-99999.0,'11133222,11111222,99999999' 
TABS,ioos:station:wmo:42050:1,2000-02-03T05:00:00Z,28.8425,-94.2433,2.0,284.7489319,5.852836919,-99999.0,'11133222,11111222,99999999' 
TABS,ioos:station:wmo:42050:1,2000-02-03T05:30:00Z,28.8425,-94.2433,2.0,272.8819979,2.98377278,-99999.0,'11133222,11111222,99999999' 
TABS,ioos:station:wmo:42050:1,2000-02-03T06:00:00Z,28.8425,-94.2433,2.0,291.8283298,4.007305828,-99999.0,'11133222,11111222,99999999' 
TABS,ioos:station:wmo:42050:1,2000-02-03T06:30:00Z,28.8425,-94.2433,2.0,263.612477,4.045108157,-99999.0,'11133222,11111222,99999999' 
TABS,ioos:station:wmo:42050:1,2000-02-03T07:00:00Z,28.8425,-94.2433,2.0,251.6288342,2.823915721,-99999.0,'11133222,11111222,99999999' 
TABS,ioos:station:wmo:42050:1,2000-02-03T07:30:00Z,28.8425,-94.2433,2.0,220.8823914,7.287866629,-99999.0,'11133222,11111222,99999999' 
TABS,ioos:station:wmo:42050:1,2000-02-03T08:00:00Z,28.8425,-94.2433,2.0,205.2907922,11.86751027,-99999.0,'11111222,11111222,99999999' 
TABS,ioos:station:wmo:42050:1,2000-02-03T08:30:00Z,28.8425,-94.2433,2.0,200.7954715,12.59022637,-99999.0,'11111222,11111222,99999999' 
TABS,ioos:station:wmo:42050:1,2000-02-03T09:00:00Z,28.8425,-94.2433,2.0,205.2412932,14.32807384,-99999.0,'11111222,11111222,99999999' 
TABS,ioos:station:wmo:42050:1,2000-02-03T09:30:00Z,28.8425,-94.2433,2.0,198.80197,14.79976351,-99999.0,'11111222,11111222,99999999' 
TABS,ioos:station:wmo:42050:1,2000-02-03T10:00:00Z,28.8425,-94.2433,2.0,194.68771,19.40410524,-99999.0,'11111222,11111222,99999999' 
TABS,ioos:station:wmo:42050:1,2000-02-03T10:30:00Z,28.8425,-94.2433,2.0,198.4438523,19.78637157,-99999.0,'11111222,11111222,99999999' 
TABS,ioos:station:wmo:42050:1,2000-02-03T11:00:00Z,28.8425,-94.2433,2.0,201.9016977,17.98833511,-99999.0,'11111222,11111222,99999999' 
TABS,ioos:station:wmo:42050:1,2000-02-03T11:30:00Z,28.8425,-94.2433,2.0,206.0819616,15.92136929,-99999.0,'11111222,11111222,99999999' 
TABS,ioos:station:wmo:42050:1,2000-02-03T12:00:00Z,28.8425,-94.2433,2.0,221.591436,15.93809273,-99999.0,'11111222,11111222,99999999' 
TABS,ioos:station:wmo:42050:1,2000-02-03T12:30:00Z,28.8425,-94.2433,2.0,228.5994551,15.09114972,-99999.0,'11111222,11111222,99999999' 
TABS,ioos:station:wmo:42050:1,2000-02-03T13:00:00Z,28.8425,-94.2433,2.0,236.0113446,14.9188639,-99999.0,'11111222,11111222,99999999' 
TABS,ioos:station:wmo:42050:1,2000-02-03T13:30:00Z,28.8425,-94.2433,2.0,246.9919852,11.82027072,-99999.0,'11111222,11111222,99999999' 
TABS,ioos:station:wmo:42050:1,2000-02-03T14:00:00Z,28.8425,-94.2433,2.0,240.5255956,11.80823865,-99999.0,'11111222,11111222,99999999' 
TABS,ioos:station:wmo:42050:1,2000-02-03T14:30:00Z,28.8425,-94.2433,2.0,258.1611977,12.33230716,-99999.0,'11111222,11111222,99999999' 
TABS,ioos:station:wmo:42050:1,2000-02-03T15:00:00Z,28.8425,-94.2433,2.0,271.6479718,10.43431359,-99999.0,'11111222,11111222,99999999' 
TABS,ioos:station:wmo:42050:1,2000-02-03T15:30:00Z,28.8425,-94.2433,2.0,274.1177138,10.30659983,-99999.0,'11111222,11111222,99999999' 
TABS,ioos:station:wmo:42050:1,2000-02-03T16:00:00Z,28.8425,-94.2433,2.0,301.9143696,9.306793218,-99999.0,'11133222,11111222,99999999' 
TABS,ioos:station:wmo:42050:1,2000-02-03T16:30:00Z,28.8425,-94.2433,2.0,306.6601186,8.726058675,-99999.0,'11133222,11111222,99999999' 
TABS,ioos:station:wmo:42050:1,2000-02-03T17:00:00Z,28.8425,-94.2433,2.0,331.918926,7.605294209,-99999.0,'11133222,11111222,99999999' 
TABS,ioos:station:wmo:42050:1,2000-02-03T17:30:00Z,28.8425,-94.2433,2.0,335.0666184,7.068840075,-99999.0,'11133222,11111222,99999999' 
TABS,ioos:station:wmo:42050:1,2000-02-03T18:00:00Z,28.8425,-94.2433,2.0,331.918926,7.605294209,-99999.0,'11133222,11111222,99999999' 
TABS,ioos:station:wmo:42050:1,2000-02-03T18:30:00Z,28.8425,-94.2433,2.0,339.1080379,8.777066708,-99999.0,'11133222,11111222,99999999' 
TABS,ioos:station:wmo:42050:1,2000-02-03T19:00:00Z,28.8425,-94.2433,2.0,357.5461845,7.006425622,-99999.0,'11133222,11111222,99999999' 
TABS,ioos:station:wmo:42050:1,2000-02-03T19:30:00Z,28.8425,-94.2433,2.0,0.000210459,6.56,-99999.0,'11133222,11111222,99999999' 
TABS,ioos:station:wmo:42050:1,2000-02-03T20:00:00Z,28.8425,-94.2433,2.0,13.96108171,3.688970046,-99999.0,'11133222,11111222,99999999' 
TABS,ioos:station:wmo:42050:1,2000-02-03T20:30:00Z,28.8425,-94.2433,2.0,33.02987185,4.091185647,-99999.0,'11133222,11111222,99999999' 
TABS,ioos:station:wmo:42050:1,2000-02-03T21:00:00Z,28.8425,-94.2433,2.0,45.00010523,2.743574311,-99999.0,'11133222,11111222,99999999' 
TABS,ioos:station:wmo:42050:1,2000-02-03T21:30:00Z,28.8425,-94.2433,2.0,35.43344161,1.276401191,-99999.0,'11133222,11111222,99999999' 
TABS,ioos:station:wmo:42050:1,2000-02-03T22:00:00Z,28.8425,-94.2433,2.0,90.0,1.49,-99999.0,'11133222,11111222,99999999' 
TABS,ioos:station:wmo:42050:1,2000-02-03T22:30:00Z,28.8425,-94.2433,2.0,96.38710209,1.348369386,-99999.0,'11133222,11111222,99999999' 
TABS,ioos:station:wmo:42050:1,2000-02-03T23:00:00Z,28.8425,-94.2433,2.0,104.149443,2.454465319,-99999.0,'11133222,11111222,99999999' 
TABS,ioos:station:wmo:42050:1,2000-02-03T23:30:00Z,28.8425,-94.2433,2.0,96.76237386,2.547724475,-99999.0,'11133222,11111222,99999999' 
TABS,ioos:station:wmo:42050:1,2000-02-04T00:00:00Z,28.8425,-94.2433,2.0,96.63249911,3.896074948,-99999.0,'11133222,11111222,99999999' 
TABS,ioos:station:wmo:42050:1,2000-02-04T00:30:00Z,28.8425,-94.2433,2.0,94.4326581,3.881610491,-99999.0,'11133222,11111222,99999999' 
TABS,ioos:station:wmo:42050:1,2000-02-04T01:00:00Z,28.8425,-94.2433,2.0,83.9488557,2.845856637,-99999.0,'11133222,11111222,99999999' 
TABS,ioos:station:wmo:42050:1,2000-02-04T01:30:00Z,28.8425,-94.2433,2.0,84.77408481,3.293690939,-99999.0,'11133222,11111222,99999999' 
TABS,ioos:station:wmo:42050:1,2000-02-04T02:00:00Z,28.8425,-94.2433,2.0,80.4858017,3.629931129,-99999.0,'11133222,11111222,99999999' 
TABS,ioos:station:wmo:42050:1,2000-02-04T02:30:00Z,28.8425,-94.2433,2.0,64.60018546,6.597764773,-99999.0,'11133222,11111222,99999999' 
TABS,ioos:station:wmo:42050:1,2000-02-04T03:00:00Z,28.8425,-94.2433,2.0,39.76784459,5.815436355,-99999.0,'11133222,11111222,99999999' 
TABS,ioos:station:wmo:42050:1,2000-02-04T03:30:00Z,28.8425,-94.2433,2.0,43.14051024,6.537109453,-99999.0,'11133222,11111222,99999999' 
TABS,ioos:station:wmo:42050:1,2000-02-04T04:00:00Z,28.8425,-94.2433,2.0,36.27063043,5.544303383,-99999.0,'11133222,11111222,99999999' 
TABS,ioos:station:wmo:42050:1,2000-02-04T04:30:00Z,28.8425,-94.2433,2.0,45.00010523,5.260874452,-99999.0,'11133222,11111222,99999999' 
TABS,ioos:station:wmo:42050:1,2000-02-04T05:00:00Z,28.8425,-94.2433,2.0,43.8679276,5.36798845,-99999.0,'11133222,11111222,99999999' 
TABS,ioos:station:wmo:42050:1,2000-02-04T05:30:00Z,28.8425,-94.2433,2.0,78.73940175,4.557740668,-99999.0,'11133222,11111222,99999999' 
TABS,ioos:station:wmo:42050:1,2000-02-04T06:00:00Z,28.8425,-94.2433,2.0,91.92195146,4.47251607,-99999.0,'11133222,11111222,99999999' 
TABS,ioos:station:wmo:42050:1,2000-02-04T06:30:00Z,28.8425,-94.2433,2.0,81.41285175,3.013784996,-99999.0,'11133222,11111222,99999999' 
TABS,ioos:station:wmo:42050:1,2000-02-04T07:00:00Z,28.8425,-94.2433,2.0,102.1508826,2.137896162,-99999.0,'11133222,11111222,99999999' 
TABS,ioos:station:wmo:42050:1,2000-02-04T07:30:00Z,28.8425,-94.2433,2.0,133.6593677,4.53379532,-99999.0,'11133222,11111222,99999999' 
TABS,ioos:station:wmo:42050:1,2000-02-04T08:00:00Z,28.8425,-94.2433,2.0,148.9983364,2.601634102,-99999.0,'11133222,11111222,99999999' 
TABS,ioos:station:wmo:42050:1,2000-02-04T08:30:00Z,28.8425,-94.2433,2.0,142.7377162,4.674109541,-99999.0,'11133222,11111222,99999999' 
TABS,ioos:station:wmo:42050:1,2000-02-04T09:00:00Z,28.8425,-94.2433,2.0,169.0191652,5.45996337,-99999.0,'11133222,11111222,99999999' 
TABS,ioos:station:wmo:42050:1,2000-02-04T09:30:00Z,28.8425,-94.2433,2.0,160.3373079,8.856410108,-99999.0,'11133222,11111222,99999999' 
TABS,ioos:station:wmo:42050:1,2000-02-04T10:00:00Z,28.8425,-94.2433,2.0,165.2828392,8.777983823,-99999.0,'11133222,11111222,99999999' 
TABS,ioos:station:wmo:42050:1,2000-02-04T10:30:00Z,28.8425,-94.2433,2.0,165.4456096,8.316886437,-99999.0,'11133222,11111222,99999999' 
TABS,ioos:station:wmo:42050:1,2000-02-04T11:00:00Z,28.8425,-94.2433,2.0,172.7771824,9.465104331,-99999.0,'11133222,11111222,99999999' 
TABS,ioos:station:wmo:42050:1,2000-02-04T11:30:00Z,28.8425,-94.2433,2.0,175.4209499,9.269584672,-99999.0,'11133222,11111222,99999999' 
TABS,ioos:station:wmo:42050:1,2000-02-04T12:00:00Z,28.8425,-94.2433,2.0,177.1182126,8.951318339,-99999.0,'11133222,11111222,99999999' 
TABS,ioos:station:wmo:42050:1,2000-02-04T12:30:00Z,28.8425,-94.2433,2.0,171.9834631,10.68440452,-99999.0,'11111222,11111222,99999999' 
TABS,ioos:station:wmo:42050:1,2000-02-04T13:00:00Z,28.8425,-94.2433,2.0,175.0134674,11.96528311,-99999.0,'11111222,11111222,99999999' 
TABS,ioos:station:wmo:42050:1,2000-02-04T13:30:00Z,28.8425,-94.2433,2.0,177.8839177,16.25107996,-99999.0,'11111222,11111222,99999999' 
TABS,ioos:station:wmo:42050:1,2000-02-04T14:00:00Z,28.8425,-94.2433,2.0,179.5455524,18.9205946,-99999.0,'11111222,11111222,99999999' 
TABS,ioos:station:wmo:42050:1,2000-02-04T14:30:00Z,28.8425,-94.2433,2.0,190.546574,15.46120629,-99999.0,'11111222,11111222,99999999' 
TABS,ioos:station:wmo:42050:1,2000-02-04T15:00:00Z,28.8425,-94.2433,2.0,214.396381,13.7187791,-99999.0,'11111222,11111222,99999999' 
TABS,ioos:station:wmo:42050:1,2000-02-04T15:30:00Z,28.8425,-94.2433,2.0,217.3583461,10.31637533,-99999.0,'11111222,11111222,99999999' 
TABS,ioos:station:wmo:42050:1,2000-02-04T16:00:00Z,28.8425,-94.2433,2.0,236.3095903,10.20371011,-99999.0,'11111222,11111222,99999999' 
TABS,ioos:station:wmo:42050:1,2000-02-04T16:30:00Z,28.8425,-94.2433,2.0,229.0714887,10.45621825,-99999.0,'11111222,11111222,99999999' 
TABS,ioos:station:wmo:42050:1,2000-02-04T17:00:00Z,28.8425,-94.2433,2.0,259.1744927,3.940114212,-99999.0,'11133222,11111222,99999999' 
TABS,ioos:station:wmo:42050:1,2000-02-04T17:30:00Z,28.8425,-94.2433,2.0,289.0300698,4.56973741,-99999.0,'11133222,11111222,99999999' 
TABS,ioos:station:wmo:42050:1,2000-02-04T18:00:00Z,28.8425,-94.2433,2.0,292.8068631,6.140032573,-99999.0,'11133222,11111222,99999999' 